"startDT [UTC]","vpos","CH4 [ppm]","stdev(CH4) [ppm]","CO2 [ppm]","stdev(CO2) [ppm]","H2O [ppm]","stdev(H2O)","p_LGR [torr]","T_LGR [C]","mt1_LGR [us]","mt2_LGR [us]","T_ECpre [C]","T_EC1 [C]","T_EC2 [C]","p_inlet [hPa]","p_in [hPa]","p_out [hPa]","T_inlet [C]","RH_inlet [%]","dwpt_inlet [C]","T_vent [C]","RH_vent [%]","dwpt_vent [C]","flow_vent [l min-1]","flow_inlet [l min-1]","dwpt_sample [C]","T_room [C]"
2012-08-26 00:00:00,0.0,1.9729,0.0009,386.09,0.28,241.1,31.1,138.06,31.60,24.66,36.54,0.93,13.94,-26.12,-51,39,-931,26.1,27.1,5.7,26.0,1.6,-29.3,5.73,2.59,-27.4,30.1
2012-08-26 00:01:00,0.0,1.9727,0.0007,386.04,0.26,232.9,24.7,138.06,31.60,24.66,36.54,0.94,14.12,-26.12,-51,39,-931,26.1,27.1,5.7,26.0,1.6,-29.3,5.73,2.59,-27.4,30.1
2012-08-26 00:02:00,0.0,1.9726,0.0009,386.16,0.32,245.6,26.5,138.06,31.59,24.66,36.54,0.94,14.29,-26.12,-51,39,-931,26.1,27.0,5.6,26.0,1.6,-29.3,5.73,2.56,-27.5,30.1
2012-08-26 00:03:00,0.0,1.9727,0.0009,386.15,0.37,241.0,25.9,138.06,31.59,24.66,36.54,0.93,14.46,-26.12,-51,39,-931,26.1,27.1,5.6,25.9,1.6,-29.3,5.73,2.58,-27.4,30.0
2012-08-26 00:04:00,0.0,1.9728,0.0007,386.14,0.28,234.9,26.0,138.06,31.58,24.66,36.54,0.94,14.61,-26.12,-51,39,-931,26.1,26.9,5.6,25.9,1.6,-29.3,5.73,2.60,-27.5,30.0
2012-08-26 00:05:00,0.0,1.9732,0.0010,386.02,0.29,241.3,28.4,138.06,31.57,24.66,36.54,0.94,14.76,-26.11,-51,39,-931,26.0,27.0,5.5,25.9,1.6,-29.3,5.73,2.56,-27.5,30.0
2012-08-26 00:06:00,0.0,1.9735,0.0008,385.98,0.27,242.9,25.5,138.06,31.57,24.66,36.54,0.94,14.90,-26.11,-51,39,-931,26.0,27.2,5.6,25.9,1.6,-29.4,5.73,2.58,-27.5,30.0
2012-08-26 00:07:00,0.0,1.9729,0.0008,386.14,0.28,233.8,25.4,138.06,31.56,24.66,36.54,0.94,15.04,-26.11,-51,39,-931,26.0,27.0,5.6,25.9,1.6,-29.3,5.73,2.60,-27.5,29.9
2012-08-26 00:08:00,0.0,1.9738,0.0008,386.10,0.27,236.9,34.1,138.06,31.56,24.66,36.54,0.94,15.16,-26.12,-51,39,-931,26.0,27.1,5.6,25.9,1.6,-29.3,5.73,2.57,-27.5,29.9
2012-08-26 00:09:00,0.0,1.9730,0.0009,386.14,0.25,240.6,33.4,138.06,31.55,24.66,36.54,0.94,15.29,-26.11,-51,39,-931,26.0,27.1,5.6,25.9,1.6,-29.3,5.73,2.57,-27.5,29.8
2012-08-26 00:10:00,0.0,1.9730,0.0009,386.10,0.25,228.1,30.7,138.06,31.55,24.66,36.54,0.94,15.41,-26.11,-51,39,-931,26.0,27.1,5.6,25.8,1.6,-29.4,5.73,2.61,-27.6,29.8
2012-08-26 00:11:00,0.0,1.9730,0.0008,386.14,0.30,239.5,29.2,138.07,31.54,24.66,36.55,0.94,15.52,-26.12,-51,39,-931,25.9,27.1,5.5,25.8,1.6,-29.4,5.73,2.57,-27.6,29.8
2012-08-26 00:12:00,0.0,1.9735,0.0006,386.09,0.28,231.0,34.5,138.07,31.53,24.66,36.54,0.94,15.62,-26.12,-51,39,-930,25.9,27.2,5.6,25.8,1.6,-29.4,5.73,2.57,-27.6,29.8
2012-08-26 00:13:00,0.0,1.9729,0.0009,386.03,0.32,233.5,29.8,138.07,31.52,24.66,36.54,0.95,15.73,-26.11,-51,39,-931,25.9,27.2,5.6,25.8,1.6,-29.4,5.73,2.61,-27.6,29.8
2012-08-26 00:14:00,0.0,1.9735,0.0010,385.98,0.24,229.1,27.1,138.07,31.52,24.66,36.54,0.94,15.82,-26.12,-51,39,-930,25.9,27.2,5.5,25.8,1.6,-29.4,5.73,2.57,-27.6,29.8
2012-08-26 00:15:00,0.0,1.9733,0.0009,385.99,0.26,227.8,24.2,138.07,31.51,24.66,36.54,0.94,15.92,-26.12,-51,39,-931,25.8,27.4,5.6,25.8,1.6,-29.4,5.73,2.58,-27.6,29.7
2012-08-26 00:16:00,0.0,1.9728,0.0008,386.06,0.33,228.5,26.4,138.07,31.50,24.66,36.54,0.94,16.01,-26.12,-51,39,-931,25.8,27.4,5.6,25.7,1.6,-29.4,5.73,2.61,-27.6,29.7
2012-08-26 00:17:00,0.0,1.9724,0.0009,386.00,0.24,227.9,29.6,138.07,31.49,24.66,36.55,0.94,16.09,-26.12,-51,39,-931,25.8,27.4,5.6,25.7,1.6,-29.4,5.73,2.57,-27.6,29.7
2012-08-26 00:18:00,0.0,1.9721,0.0008,385.91,0.23,233.6,28.2,138.07,31.48,24.66,36.55,0.94,16.17,-26.12,-51,39,-931,25.8,27.4,5.6,25.7,1.6,-29.5,5.73,2.58,-27.6,29.7
2012-08-26 00:19:00,0.0,1.9723,0.0010,386.12,0.30,238.4,33.8,138.07,31.48,24.66,36.54,0.94,16.25,-26.12,-51,39,-930,25.8,27.3,5.6,25.7,1.6,-29.4,5.73,2.61,-27.6,29.7
2012-08-26 00:20:00,0.0,1.9724,0.0008,386.06,0.28,237.0,29.8,138.07,31.47,24.66,36.54,0.93,16.33,-26.11,-51,39,-931,25.8,27.3,5.5,25.7,1.6,-29.5,5.73,2.58,-27.6,29.7
2012-08-26 00:21:00,0.0,1.9726,0.0008,385.97,0.27,242.2,30.7,138.07,31.47,24.66,36.54,0.94,16.40,-26.12,-51,39,-931,25.8,27.3,5.5,25.7,1.6,-29.5,5.73,2.56,-27.6,29.7
2012-08-26 00:22:00,0.0,1.9729,0.0008,385.89,0.29,239.2,31.3,138.07,31.46,24.66,36.54,0.94,16.47,-26.12,-51,39,-930,25.8,27.4,5.6,25.7,1.6,-29.4,5.73,2.59,-27.6,29.8
2012-08-26 00:23:00,0.0,1.9733,0.0008,385.93,0.27,227.1,29.5,138.06,31.46,24.66,36.54,0.93,16.54,-26.11,-51,39,-931,25.8,27.5,5.6,25.7,1.6,-29.4,5.73,2.59,-27.6,29.8
2012-08-26 00:24:00,0.0,1.9734,0.0009,386.08,0.30,241.2,29.9,138.07,31.46,24.66,36.54,0.93,16.60,-26.12,-51,39,-931,25.8,27.4,5.6,25.7,1.6,-29.4,5.73,2.56,-27.6,29.8
2012-08-26 00:25:00,0.0,1.9726,0.0009,386.03,0.30,242.6,29.5,138.06,31.45,24.66,36.54,0.93,16.66,-26.12,-51,39,-931,25.8,27.4,5.6,25.7,1.6,-29.4,5.73,2.58,-27.5,29.8
2012-08-26 00:26:00,0.0,1.9726,0.0008,386.09,0.32,243.2,27.1,138.06,31.45,24.66,36.55,0.93,16.72,-26.11,-51,39,-930,25.8,27.4,5.6,25.7,1.6,-29.4,5.73,2.60,-27.5,29.8
2012-08-26 00:27:00,0.0,1.9728,0.0010,386.09,0.34,243.8,27.9,138.06,31.45,24.66,36.55,0.93,16.78,-26.11,-50,39,-930,25.8,27.4,5.6,25.7,1.6,-29.5,5.73,2.58,-27.5,29.8
2012-08-26 00:28:00,0.0,1.9731,0.0010,386.04,0.29,243.3,33.7,138.06,31.44,24.66,36.54,0.95,16.84,-26.11,-51,39,-931,25.8,27.6,5.7,25.7,1.6,-29.4,5.73,2.56,-27.5,29.8
2012-08-26 00:29:00,0.0,1.9732,0.0010,386.23,0.20,237.8,31.7,138.06,31.44,24.66,36.54,0.93,16.89,-26.10,-51,39,-931,25.8,27.5,5.6,25.7,1.6,-29.4,5.73,2.58,-27.5,29.9
2012-08-26 00:30:00,0.0,1.9744,0.0009,386.15,0.26,239.3,29.8,138.06,31.44,24.66,36.55,0.93,16.94,-26.11,-50,39,-930,25.8,27.5,5.7,25.7,1.6,-29.4,5.73,2.59,-27.5,29.9
2012-08-26 00:31:00,0.0,1.9749,0.0010,386.19,0.26,246.8,28.1,138.06,31.43,24.66,36.54,0.93,16.98,-26.10,-51,39,-930,25.8,27.6,5.7,25.7,1.6,-29.4,5.73,2.58,-27.5,29.9
2012-08-26 00:32:00,0.0,1.9752,0.0009,386.09,0.29,242.2,26.8,138.06,31.43,24.66,36.55,0.93,17.03,-26.10,-51,39,-930,25.8,27.6,5.7,25.7,1.6,-29.4,5.73,2.56,-27.5,29.9
2012-08-26 00:33:00,0.0,1.9751,0.0009,386.17,0.22,239.0,33.2,138.06,31.43,24.66,36.54,0.93,17.08,-26.09,-50,39,-931,25.8,27.6,5.7,25.7,1.6,-29.4,5.73,2.58,-27.5,29.9
2012-08-26 00:34:00,0.0,1.9752,0.0010,386.00,0.24,238.2,27.3,138.06,31.43,24.66,36.55,0.94,17.13,-26.09,-50,39,-931,25.8,27.6,5.7,25.7,1.6,-29.4,5.73,2.59,-27.5,30.0
2012-08-26 00:35:00,0.0,1.9746,0.0010,386.08,0.34,239.4,27.7,138.06,31.43,24.66,36.54,0.93,17.17,-26.09,-51,39,-930,25.8,27.7,5.7,25.7,1.6,-29.4,5.73,2.58,-27.5,30.0
2012-08-26 00:36:00,0.0,1.9755,0.0008,386.11,0.29,239.2,26.5,138.06,31.43,24.66,36.54,0.93,17.21,-26.09,-50,39,-930,25.8,27.6,5.7,25.7,1.6,-29.4,5.73,2.56,-27.5,30.0
2012-08-26 00:37:00,0.0,1.9753,0.0011,386.12,0.23,231.5,33.3,138.06,31.43,24.66,36.55,0.93,17.25,-26.08,-50,39,-930,25.8,27.5,5.6,25.7,1.6,-29.4,5.73,2.57,-27.5,30.0
2012-08-26 00:38:00,0.0,1.9742,0.0008,386.16,0.28,240.4,29.6,138.06,31.44,24.66,36.55,0.94,17.29,-26.08,-51,39,-931,25.8,27.3,5.6,25.7,1.6,-29.4,5.73,2.59,-27.5,30.0
2012-08-26 00:39:00,0.0,1.9742,0.0011,386.14,0.25,240.3,32.5,138.06,31.44,24.66,36.55,0.93,17.32,-26.07,-50,39,-930,25.9,27.4,5.6,25.8,1.6,-29.4,5.73,2.58,-27.5,30.0
2012-08-26 00:40:00,0.0,1.9753,0.0010,386.22,0.27,237.4,26.5,138.06,31.44,24.66,36.55,0.94,17.36,-26.07,-50,39,-930,25.9,27.3,5.6,25.7,1.6,-29.4,5.73,2.56,-27.5,30.0
2012-08-26 00:41:00,0.0,1.9761,0.0010,386.20,0.24,238.3,29.2,138.06,31.44,24.66,36.55,0.93,17.39,-26.07,-50,39,-931,25.9,27.3,5.6,25.8,1.6,-29.4,5.73,2.56,-27.5,30.1
2012-08-26 00:42:00,0.0,1.9761,0.0011,386.27,0.25,235.7,30.2,138.06,31.44,24.66,36.54,0.94,17.42,-26.06,-50,39,-931,25.9,27.2,5.6,25.8,1.6,-29.4,5.73,2.58,-27.5,30.1
2012-08-26 00:43:00,0.0,1.9764,0.0009,386.28,0.24,243.5,28.6,138.06,31.44,24.66,36.54,0.94,17.46,-26.06,-50,39,-930,25.9,27.2,5.5,25.8,1.6,-29.4,5.73,2.58,-27.5,30.1
2012-08-26 00:44:00,0.0,1.9776,0.0009,386.25,0.30,235.3,29.9,138.06,31.44,24.66,36.55,0.94,17.49,-26.05,-50,39,-930,25.9,27.1,5.5,25.8,1.6,-29.4,5.73,2.56,-27.5,30.1
2012-08-26 00:45:00,0.0,1.9784,0.0009,386.17,0.30,240.2,26.1,138.06,31.44,24.66,36.54,0.94,17.51,-26.05,-50,39,-931,25.9,27.1,5.5,25.8,1.6,-29.4,5.73,2.56,-27.4,30.2
2012-08-26 00:46:00,0.0,1.9793,0.0009,386.13,0.25,245.2,33.7,138.05,31.44,24.66,36.55,0.93,17.54,-26.05,-50,39,-930,25.9,27.1,5.5,25.8,1.6,-29.4,5.73,2.58,-27.4,30.1
2012-08-26 00:47:00,0.0,1.9794,0.0009,386.23,0.31,239.3,27.9,138.05,31.44,24.66,36.55,0.93,17.57,-26.04,-50,39,-930,25.9,27.1,5.5,25.8,1.6,-29.4,5.73,2.59,-27.4,30.2
2012-08-26 00:48:00,0.0,1.9798,0.0008,386.21,0.28,230.2,27.1,138.06,31.44,24.66,36.54,0.96,17.60,-26.04,-50,39,-931,25.9,27.1,5.6,25.8,1.6,-29.4,5.73,2.57,-27.4,30.2
2012-08-26 00:49:00,0.0,1.9794,0.0009,386.16,0.27,242.5,26.1,138.06,31.44,24.66,36.55,0.93,17.62,-26.03,-51,39,-930,25.9,27.2,5.6,25.8,1.6,-29.4,5.73,2.55,-27.5,30.2
2012-08-26 00:50:00,0.0,1.9797,0.0009,386.32,0.28,234.4,27.9,138.06,31.44,24.66,36.54,0.93,17.65,-26.03,-50,39,-930,25.9,27.2,5.6,25.8,1.6,-29.4,5.73,2.56,-27.5,30.2
2012-08-26 00:51:00,0.0,1.9800,0.0009,386.28,0.26,229.5,26.1,138.06,31.45,24.66,36.55,0.97,17.67,-26.03,-50,39,-931,26.0,27.1,5.6,25.8,1.6,-29.4,5.73,2.59,-27.5,30.2
2012-08-26 00:52:00,0.0,1.9799,0.0009,386.23,0.30,228.7,31.7,138.06,31.44,24.66,36.55,0.93,17.69,-26.03,-50,39,-930,26.0,27.2,5.6,25.8,1.6,-29.4,5.73,2.57,-27.5,30.2
2012-08-26 00:53:00,0.0,1.9798,0.0008,386.16,0.26,230.2,27.4,138.06,31.44,24.66,36.55,0.94,17.72,-26.01,-50,39,-931,25.9,27.1,5.6,25.8,1.6,-29.4,5.73,2.55,-27.5,30.2
2012-08-26 00:54:00,0.0,1.9798,0.0008,386.26,0.28,226.8,24.8,138.06,31.44,24.66,36.54,0.93,17.73,-26.02,-50,39,-930,26.0,27.2,5.6,25.8,1.6,-29.4,5.73,2.57,-27.5,30.2
2012-08-26 00:55:00,0.0,1.9798,0.0009,386.15,0.28,232.9,31.8,138.06,31.44,24.66,36.55,0.95,17.75,-26.01,-50,39,-931,25.9,27.2,5.6,25.8,1.6,-29.3,5.73,2.59,-27.5,30.2
2012-08-26 00:56:00,0.0,1.9797,0.0009,386.11,0.32,227.5,30.0,138.06,31.44,24.66,36.54,0.95,17.77,-26.02,-50,39,-930,25.9,27.2,5.6,25.8,1.6,-29.4,5.73,2.56,-27.5,30.1
2012-08-26 00:57:00,0.0,1.9796,0.0008,386.18,0.31,224.0,28.4,138.06,31.43,24.66,36.54,0.94,17.78,-26.01,-50,39,-931,25.9,27.1,5.5,25.8,1.6,-29.4,5.73,2.56,-27.5,30.1
2012-08-26 00:58:00,0.0,1.9793,0.0009,386.12,0.30,227.7,32.7,138.06,31.43,24.66,36.54,0.96,17.80,-26.01,-50,39,-930,25.9,27.0,5.5,25.8,1.6,-29.4,5.73,2.58,-27.5,30.1
2012-08-26 00:59:00,0.0,1.9794,0.0010,386.22,0.31,229.1,28.7,138.06,31.43,24.66,36.54,0.92,17.81,-26.01,-50,39,-931,25.9,27.1,5.5,25.8,1.6,-29.4,5.73,2.59,-27.6,30.1
2012-08-26 01:00:00,0.0,1.9790,0.0010,385.98,0.26,230.5,25.4,138.06,31.43,24.66,36.55,0.93,17.82,-26.01,-50,39,-930,25.9,27.1,5.5,25.8,1.6,-29.4,5.73,2.57,-27.5,30.2
2012-08-26 01:01:00,0.0,1.9784,0.0011,385.81,0.38,230.1,27.1,138.06,31.42,24.66,36.54,0.94,17.84,-26.01,-50,39,-931,25.9,27.3,5.6,25.7,1.6,-29.4,5.73,2.56,-27.5,30.1
2012-08-26 01:02:00,0.0,1.9777,0.0008,385.91,0.33,240.3,29.2,138.06,31.42,24.66,36.55,1.11,17.12,-26.02,-50,39,-930,25.9,27.1,5.5,25.7,1.6,-29.4,5.73,2.59,-27.6,30.1
2012-08-26 01:03:00,0.0,1.9778,0.0008,385.66,0.31,240.6,25.9,138.06,31.41,24.66,36.55,1.05,15.10,-26.02,-50,39,-931,25.9,27.4,5.7,25.7,1.6,-29.5,5.73,2.59,-27.5,30.1
2012-08-26 01:04:00,0.0,1.9781,0.0011,385.77,0.32,230.4,29.9,138.06,31.41,24.66,36.54,1.06,12.80,-26.02,-51,39,-930,25.9,27.4,5.6,25.7,1.6,-29.4,5.73,2.56,-27.5,30.0
2012-08-26 01:05:00,0.0,1.9779,0.0009,385.37,0.25,235.3,30.4,138.06,31.41,24.66,36.55,1.03,10.48,-26.02,-51,39,-931,25.9,27.5,5.7,25.7,1.6,-29.4,5.73,2.57,-27.5,30.0
2012-08-26 01:06:00,0.0,1.9778,0.0011,385.76,0.26,231.4,28.9,138.06,31.41,24.66,36.54,0.96,8.22,-26.01,-50,39,-930,25.9,27.4,5.7,25.7,1.6,-29.5,5.73,2.60,-27.5,30.0
2012-08-26 01:07:00,0.0,1.9769,0.0009,385.97,0.34,239.6,32.1,138.06,31.40,24.66,36.54,1.04,6.05,-26.01,-51,39,-931,25.9,27.1,5.5,25.7,1.6,-29.4,5.73,2.57,-27.5,30.0
2012-08-26 01:08:00,0.0,1.9767,0.0009,385.84,0.33,228.0,27.5,138.06,31.40,24.66,36.55,1.09,3.99,-26.00,-50,39,-930,25.9,27.0,5.5,25.7,1.6,-29.4,5.73,2.56,-27.5,30.0
2012-08-26 01:09:00,0.0,1.9759,0.0010,385.87,0.40,227.6,30.5,138.06,31.40,24.66,36.55,0.97,2.03,-25.98,-51,39,-931,25.9,27.2,5.5,25.7,1.6,-29.4,5.73,2.60,-27.5,30.0
2012-08-26 01:10:00,0.0,1.9757,0.0010,385.98,0.27,231.0,29.2,138.06,31.39,24.66,36.54,1.02,0.16,-25.97,-51,39,-930,25.9,27.0,5.4,25.7,1.6,-29.4,5.73,2.58,-27.5,30.0
2012-08-26 01:11:00,0.0,1.9747,0.0009,385.92,0.30,242.7,30.8,138.06,31.39,24.66,36.54,1.09,-1.60,-25.95,-51,39,-931,25.9,27.0,5.4,25.7,1.6,-29.4,5.73,2.56,-27.5,29.9
2012-08-26 01:12:00,0.0,1.9746,0.0008,385.97,0.30,241.2,25.3,138.06,31.38,24.66,36.55,0.98,-3.12,-25.94,-51,39,-930,25.9,26.9,5.4,25.7,1.6,-29.3,5.73,2.59,-27.5,29.9
2012-08-26 01:13:00,0.0,1.9743,0.0010,386.14,0.31,239.5,29.2,138.06,31.38,24.66,36.54,0.98,-3.61,-25.93,-51,39,-931,25.9,26.9,5.4,25.7,1.6,-29.3,5.73,2.59,-27.5,30.0
2012-08-26 01:14:00,0.0,1.9744,0.0009,385.86,0.27,237.8,28.4,138.06,31.37,24.66,36.54,1.05,-5.28,-25.92,-51,39,-930,25.9,27.0,5.4,25.7,1.6,-29.3,5.73,2.56,-27.5,29.9
2012-08-26 01:15:00,0.0,1.9732,0.0011,386.06,0.28,237.8,31.0,138.06,31.37,24.66,36.54,1.06,-6.92,-25.92,-51,39,-931,25.8,26.8,5.3,25.7,1.6,-29.3,5.73,2.58,-27.5,29.9
2012-08-26 01:16:00,0.0,1.9721,0.0009,386.08,0.25,233.9,29.0,138.07,31.37,24.66,36.55,0.96,-8.25,-25.91,-51,39,-930,25.9,26.4,5.1,25.7,1.6,-29.2,5.73,2.60,-27.5,29.9
2012-08-26 01:17:00,0.0,1.9716,0.0009,386.03,0.26,235.7,31.5,138.06,31.36,24.66,36.54,1.00,-9.52,-25.91,-51,39,-931,25.8,26.3,5.0,25.7,1.6,-29.2,5.73,2.56,-27.5,29.9
2012-08-26 01:18:00,0.0,1.9715,0.0006,386.02,0.32,240.8,31.4,138.07,31.36,24.66,36.55,1.07,-10.61,-25.91,-51,39,-930,25.8,26.2,5.0,25.7,1.6,-29.3,5.73,2.58,-27.5,29.9
2012-08-26 01:19:00,0.0,1.9719,0.0008,385.91,0.29,236.7,29.5,138.07,31.35,24.66,36.54,1.02,-11.76,-25.91,-51,39,-931,25.8,26.2,5.0,25.7,1.6,-29.3,5.73,2.60,-27.5,29.9
2012-08-26 01:20:00,0.0,1.9714,0.0008,385.84,0.32,242.7,29.6,138.07,31.35,24.67,36.55,0.96,-12.79,-25.91,-51,39,-930,25.8,26.5,5.1,25.7,1.6,-29.3,5.73,2.56,-27.5,29.8
2012-08-26 01:21:00,0.0,1.9720,0.0010,386.10,0.31,245.9,28.0,138.07,31.34,24.66,36.54,1.03,-13.76,-25.92,-51,39,-930,25.8,26.2,4.9,25.7,1.6,-29.3,5.73,2.58,-27.5,29.8
2012-08-26 01:22:00,0.0,1.9717,0.0009,385.91,0.34,236.1,29.9,138.07,31.34,24.66,36.54,1.06,-14.68,-25.92,-51,39,-931,25.8,26.3,5.0,25.6,1.6,-29.3,5.73,2.60,-27.5,29.8
2012-08-26 01:23:00,0.0,1.9710,0.0009,386.05,0.31,247.2,27.9,138.07,31.33,24.66,36.54,0.99,-15.55,-25.93,-51,39,-930,25.8,26.2,4.9,25.7,1.6,-29.2,5.73,2.56,-27.5,29.8
2012-08-26 01:24:00,0.0,1.9707,0.0010,386.04,0.24,236.7,27.5,138.07,31.33,24.66,36.55,0.96,-16.34,-25.94,-51,39,-931,25.8,26.1,4.9,25.6,1.6,-29.3,5.73,2.58,-27.5,29.8
2012-08-26 01:25:00,0.0,1.9695,0.0009,386.05,0.31,238.8,22.9,138.07,31.33,24.66,36.55,1.02,-17.08,-25.95,-51,39,-930,25.8,26.2,4.9,25.6,1.6,-29.3,5.73,2.60,-27.5,29.8
2012-08-26 01:26:00,0.0,1.9693,0.0009,385.70,0.26,241.2,29.6,138.07,31.32,24.66,36.54,1.07,-17.79,-25.96,-51,39,-930,25.8,26.6,5.1,25.6,1.6,-29.3,5.73,2.56,-27.5,29.7
2012-08-26 01:27:00,0.0,1.9699,0.0007,385.84,0.30,240.2,31.3,138.07,31.31,24.66,36.54,0.99,-18.49,-25.97,-51,39,-931,25.8,26.5,5.1,25.6,1.6,-29.3,5.73,2.60,-27.5,29.7
2012-08-26 01:28:00,0.0,1.9686,0.0010,385.85,0.27,236.6,29.3,138.07,31.31,24.66,36.54,0.95,-19.17,-25.98,-51,39,-930,25.8,26.4,5.0,25.6,1.6,-29.3,5.73,2.59,-27.5,29.7
2012-08-26 01:29:00,0.0,1.9689,0.0009,386.04,0.36,247.5,29.4,138.07,31.30,24.66,36.54,1.00,-19.80,-26.00,-50,39,-931,25.8,26.4,5.0,25.6,1.6,-29.3,5.73,2.56,-27.5,29.7
2012-08-26 01:30:00,0.0,1.9686,0.0008,385.94,0.36,245.8,30.6,138.07,31.30,24.66,36.54,1.06,-20.39,-26.01,-51,39,-930,25.7,26.2,4.9,25.6,1.6,-29.5,5.73,2.60,-27.5,29.7
2012-08-26 01:31:00,0.0,1.9675,0.0009,385.85,0.30,240.6,31.5,138.07,31.30,24.66,36.55,1.01,-20.93,-26.02,-51,39,-930,25.7,26.5,5.0,25.6,1.6,-29.4,5.73,2.59,-27.5,29.7
2012-08-26 01:32:00,0.0,1.9672,0.0011,386.07,0.24,244.0,32.8,138.07,31.29,24.66,36.55,0.96,-21.43,-26.03,-50,39,-930,25.7,26.2,4.9,25.6,1.6,-29.5,5.73,2.56,-27.6,29.7
2012-08-26 01:33:00,0.0,1.9667,0.0008,386.10,0.28,232.6,29.9,138.07,31.29,24.66,36.55,0.98,-21.91,-26.04,-51,39,-930,25.7,26.0,4.8,25.6,1.6,-29.5,5.73,2.60,-27.6,29.7
2012-08-26 01:34:00,0.0,1.9669,0.0009,386.12,0.26,237.2,27.4,138.07,31.28,24.66,36.55,1.04,-22.36,-26.06,-51,39,-931,25.7,26.0,4.8,25.6,1.6,-29.5,5.73,2.58,-27.6,29.7
2012-08-26 01:35:00,0.0,1.9666,0.0009,386.00,0.26,239.7,24.8,138.07,31.28,24.66,36.55,1.05,-22.80,-26.07,-51,40,-930,25.7,26.1,4.8,25.6,1.6,-29.5,5.73,2.57,-27.6,29.7
2012-08-26 01:36:00,0.0,1.9668,0.0008,385.90,0.29,236.6,34.6,138.07,31.27,24.66,36.55,0.98,-23.21,-26.08,-51,39,-930,25.7,26.3,4.9,25.6,1.6,-29.5,5.73,2.61,-27.6,29.6
2012-08-26 01:37:00,0.0,1.9668,0.0009,385.72,0.25,234.4,28.7,138.07,31.27,24.66,36.55,0.96,-23.60,-26.09,-51,39,-931,25.7,26.7,5.1,25.6,1.6,-29.5,5.73,2.57,-27.6,29.6
2012-08-26 01:38:00,0.0,1.9666,0.0008,385.92,0.28,240.3,32.6,138.07,31.27,24.66,36.55,1.00,-23.96,-26.11,-51,40,-930,25.7,26.5,5.0,25.6,1.6,-29.5,5.73,2.58,-27.6,29.6
2012-08-26 01:39:00,0.0,1.9668,0.0008,385.95,0.29,234.9,31.8,138.07,31.26,24.66,36.55,1.05,-24.32,-26.12,-51,39,-931,25.7,26.4,5.0,25.6,1.6,-29.6,5.73,2.60,-27.6,29.6
2012-08-26 01:40:00,0.0,1.9675,0.0009,386.06,0.28,230.4,27.0,138.07,31.26,24.66,36.54,1.01,-24.65,-26.13,-51,40,-930,25.7,26.4,4.9,25.6,1.6,-29.5,5.73,2.56,-27.7,29.6
2012-08-26 01:41:00,0.0,1.9672,0.0009,385.90,0.31,231.9,29.3,138.07,31.25,24.66,36.54,0.96,-24.96,-26.14,-50,39,-930,25.7,26.3,4.9,25.6,1.6,-29.5,5.73,2.59,-27.7,29.6
2012-08-26 01:42:00,0.0,1.9674,0.0008,385.83,0.28,236.0,26.8,138.07,31.25,24.66,36.54,0.99,-25.26,-26.15,-51,40,-931,25.7,26.5,5.0,25.6,1.6,-29.5,5.73,2.60,-27.7,29.6
2012-08-26 01:43:00,0.0,1.9676,0.0008,385.76,0.29,241.2,30.2,138.07,31.25,24.66,36.54,1.05,-25.54,-26.17,-51,40,-930,25.7,26.7,5.1,25.6,1.6,-29.5,5.73,2.56,-27.7,29.6
2012-08-26 01:44:00,0.0,1.9671,0.0010,385.78,0.30,234.5,28.9,138.07,31.24,24.66,36.55,1.01,-25.80,-26.18,-50,40,-930,25.7,26.8,5.1,25.5,1.6,-29.6,5.73,2.59,-27.7,29.6
2012-08-26 01:45:00,0.0,1.9665,0.0009,385.90,0.30,229.8,24.2,138.07,31.23,24.66,36.55,0.96,-26.05,-26.19,-51,40,-931,25.7,26.6,5.0,25.5,1.6,-29.5,5.73,2.59,-27.7,29.6
2012-08-26 01:46:00,0.0,1.9658,0.0008,385.98,0.30,239.6,32.9,138.07,31.23,24.66,36.54,1.02,-26.03,-26.20,-50,40,-930,25.7,26.4,4.9,25.6,1.6,-29.5,5.73,2.57,-27.7,29.6
2012-08-26 01:47:00,0.0,1.9654,0.0010,385.72,0.31,233.8,28.5,138.07,31.22,24.66,36.55,0.97,-25.88,-26.21,-51,40,-930,25.6,26.6,5.0,25.5,1.6,-29.6,5.73,2.61,-27.7,29.6
2012-08-26 01:48:00,0.0,1.9654,0.0008,385.76,0.31,235.5,36.4,138.07,31.22,24.66,36.55,0.99,-26.05,-26.22,-50,40,-931,25.6,26.7,5.1,25.6,1.6,-29.7,5.73,2.58,-27.7,29.6
2012-08-26 01:49:00,0.0,1.9659,0.0007,385.89,0.33,233.3,26.8,138.07,31.21,24.66,36.54,0.92,-26.12,-26.23,-50,40,-930,25.7,26.7,5.1,25.5,1.6,-29.7,5.73,2.57,-27.8,29.6
2012-08-26 01:50:00,0.0,1.9662,0.0008,386.07,0.25,232.0,32.4,138.07,31.20,24.66,36.54,1.04,-25.89,-26.24,-51,40,-930,25.7,26.2,4.8,25.5,1.6,-29.7,5.73,2.61,-27.8,29.6
2012-08-26 01:51:00,0.0,1.9660,0.0010,386.07,0.32,227.6,25.5,138.07,31.20,24.66,36.54,1.04,-26.03,-26.25,-50,40,-931,25.6,26.2,4.8,25.5,1.6,-29.7,5.73,2.56,-27.8,29.5
2012-08-26 01:52:00,0.0,1.9657,0.0009,386.09,0.25,229.3,28.8,138.07,31.19,24.66,36.55,0.91,-26.20,-26.27,-51,40,-930,25.6,26.2,4.8,25.5,1.6,-29.7,5.73,2.59,-27.8,29.5
2012-08-26 01:53:00,0.0,1.9653,0.0008,386.07,0.31,228.0,26.3,138.07,31.19,24.66,36.54,0.95,-25.94,-26.27,-50,40,-930,25.6,26.2,4.8,25.5,1.6,-29.8,5.73,2.60,-27.8,29.5
2012-08-26 01:54:00,0.0,1.9656,0.0010,386.04,0.31,237.2,31.8,138.07,31.18,24.66,36.54,0.98,-26.02,-26.28,-51,40,-931,25.6,26.4,4.9,25.5,1.6,-29.8,5.73,2.57,-27.8,29.5
2012-08-26 01:55:00,0.0,1.9650,0.0009,385.98,0.27,222.1,28.1,138.07,31.18,24.66,36.54,1.02,-26.22,-26.30,-51,40,-930,25.6,26.5,4.9,25.5,1.6,-29.7,5.73,2.60,-27.8,29.5
2012-08-26 01:56:00,0.0,1.9653,0.0009,386.10,0.27,234.6,31.5,138.07,31.17,24.66,36.54,1.00,-26.04,-26.30,-50,40,-930,25.6,26.3,4.8,25.5,1.6,-29.8,5.73,2.59,-27.9,29.5
2012-08-26 01:57:00,0.0,1.9644,0.0006,386.00,0.30,230.2,21.6,138.07,31.17,24.67,36.54,1.01,-26.00,-26.31,-51,40,-930,25.6,26.3,4.8,25.5,1.6,-29.7,5.73,2.57,-27.9,29.5
2012-08-26 01:58:00,0.0,1.9648,0.0008,385.78,0.30,226.4,29.9,138.07,31.16,24.66,36.55,0.95,-26.18,-26.32,-50,40,-930,25.6,26.5,4.9,25.5,1.6,-29.7,5.73,2.61,-27.9,29.5
2012-08-26 01:59:00,0.0,1.9647,0.0008,385.84,0.30,216.2,27.3,138.07,31.16,24.66,36.54,0.93,-26.18,-26.33,-51,40,-930,25.6,26.7,5.0,25.4,1.6,-29.7,5.73,2.58,-27.9,29.5
2012-08-26 02:00:00,0.0,1.9650,0.0009,385.88,0.29,221.3,29.2,138.07,31.16,24.66,36.54,1.03,-26.00,-26.34,-50,40,-930,25.5,26.7,5.0,25.4,1.6,-29.8,5.73,2.58,-27.9,29.5
2012-08-26 02:01:00,0.0,1.9648,0.0008,386.05,0.28,224.3,32.6,138.07,31.15,24.66,36.54,0.88,-26.17,-25.85,-50,40,-930,25.5,26.4,4.8,25.4,1.6,-29.8,5.73,2.61,-27.9,29.5
2012-08-26 02:02:00,0.0,1.9648,0.0008,385.84,0.28,228.1,30.6,138.07,31.15,24.66,36.55,0.87,-26.36,-24.16,-51,40,-930,25.5,26.5,4.9,25.4,1.6,-29.8,5.73,2.59,-27.8,29.5
2012-08-26 02:03:00,0.0,1.9648,0.0010,386.06,0.27,249.5,25.6,138.07,31.14,24.66,36.54,0.93,-26.49,-22.20,-50,40,-930,25.5,26.5,4.9,25.4,1.6,-29.7,5.73,2.58,-27.4,29.5
2012-08-26 02:04:00,0.0,1.9646,0.0011,386.08,0.28,284.0,31.5,138.07,31.14,24.66,36.55,0.94,-26.55,-20.25,-50,40,-930,25.5,26.2,4.7,25.4,1.7,-29.0,5.73,2.61,-26.9,29.5
2012-08-26 02:05:00,0.0,1.9646,0.0007,385.92,0.27,307.3,24.8,138.07,31.13,24.66,36.55,0.89,-26.59,-18.38,-50,40,-930,25.5,26.5,4.9,25.4,1.8,-28.3,5.73,2.58,-26.6,29.5
2012-08-26 02:06:00,0.0,1.9650,0.0009,386.06,0.28,317.8,30.1,138.07,31.13,24.66,36.54,0.80,-26.61,-16.61,-50,40,-930,25.5,26.5,4.9,25.4,1.9,-27.9,5.73,2.58,-26.5,29.5
2012-08-26 02:07:00,0.0,1.9645,0.0008,386.10,0.35,324.0,31.2,138.07,31.12,24.66,36.55,0.86,-26.61,-14.92,-50,40,-930,25.5,26.2,4.7,25.4,1.9,-27.7,5.73,2.61,-26.4,29.5
2012-08-26 02:08:00,0.0,1.9645,0.0008,385.91,0.27,324.1,29.4,138.07,31.12,24.66,36.55,0.90,-26.60,-13.32,-50,40,-930,25.5,26.5,4.9,25.4,1.9,-27.7,5.73,2.58,-26.4,29.5
2012-08-26 02:09:00,0.0,1.9642,0.0008,386.00,0.27,328.6,29.0,138.07,31.11,24.66,36.54,0.92,-26.59,-11.81,-50,40,-930,25.5,26.6,4.9,25.4,1.9,-27.7,5.73,2.59,-26.4,29.5
2012-08-26 02:10:00,0.0,1.9638,0.0008,386.04,0.25,317.8,27.7,138.07,31.11,24.66,36.54,0.95,-26.58,-10.39,-50,40,-930,25.5,26.5,4.8,25.4,1.9,-27.8,5.73,2.62,-26.4,29.5
2012-08-26 02:11:00,0.0,1.9639,0.0009,385.92,0.24,321.6,29.6,138.07,31.11,24.66,36.55,0.89,-26.56,-9.03,-50,40,-930,25.5,26.6,4.9,25.4,1.9,-27.9,5.73,2.58,-26.4,29.5
2012-08-26 02:12:00,0.0,1.9636,0.0009,385.81,0.29,324.7,27.3,138.07,31.10,24.66,36.55,0.85,-26.55,-7.75,-50,40,-930,25.5,26.8,5.0,25.3,1.9,-28.0,5.73,2.58,-26.5,29.5
2012-08-26 02:13:00,0.0,1.9638,0.0007,385.90,0.33,313.9,27.3,138.07,31.10,24.66,36.55,0.85,-26.54,-6.53,-50,40,-930,25.5,26.8,5.0,25.3,1.9,-28.1,5.73,2.62,-26.6,29.5
2012-08-26 02:14:00,0.0,1.9636,0.0008,385.86,0.27,312.5,28.7,138.07,31.09,24.66,36.55,0.87,-26.52,-5.38,-50,40,-930,25.4,27.0,5.1,25.3,1.9,-28.2,5.73,2.58,-26.6,29.5
2012-08-26 02:15:00,0.0,1.9634,0.0009,385.92,0.28,313.8,27.7,138.07,31.09,24.66,36.54,0.91,-26.50,-4.28,-50,40,-930,25.4,27.0,5.0,25.3,1.8,-28.3,5.73,2.58,-26.7,29.5
2012-08-26 02:16:00,0.0,1.9633,0.0008,385.94,0.27,303.4,24.3,138.07,31.09,24.66,36.55,0.93,-26.49,-3.24,-50,40,-930,25.4,26.9,5.0,25.3,1.8,-28.4,5.73,2.61,-26.7,29.4
2012-08-26 02:17:00,0.0,1.9634,0.0009,385.98,0.25,292.4,30.4,138.07,31.08,24.66,36.55,0.95,-26.47,-2.25,-50,40,-930,25.4,26.6,4.8,25.3,1.8,-28.5,5.73,2.59,-26.7,29.4
2012-08-26 02:18:00,0.0,1.9631,0.0008,385.87,0.28,296.4,26.2,138.07,31.08,24.66,36.54,0.95,-26.47,-1.32,-50,40,-930,25.4,26.8,4.9,25.3,1.8,-28.5,5.73,2.58,-26.8,29.4
2012-08-26 02:19:00,0.0,1.9627,0.0008,385.96,0.24,292.6,30.6,138.07,31.08,24.66,36.55,0.88,-26.45,-0.42,-50,40,-930,25.4,26.5,4.8,25.2,1.8,-28.5,5.73,2.62,-26.8,29.4
2012-08-26 02:20:00,0.0,1.9629,0.0008,385.90,0.26,297.1,30.3,138.07,31.07,24.66,36.54,0.86,-26.43,0.42,-50,40,-930,25.4,26.6,4.8,25.2,1.8,-28.6,5.73,2.59,-26.8,29.4